Regional Weather Roundup
Issued by NWS

Home | Current Version | Previous Version | Graphics & Text | Print | Product List | Glossary On
Versions: 1 2 3 4 5 6 7 8 9 10 11 12 13 14 15 16 17 18 19 20 21 22 23 24 25 26 27 28 29 30 31 32 33 34 35 36 37 38 39 40 41 42 43 44 45 46 47 48 49 50
000
ASUS43 KIND 291859
RWRIN

WEATHER ROUNDUP FOR INDIANA
NATIONAL WEATHER SERVICE INDIANAPOLIS IN
300 PM EDT MON AUG 29 2016

NOTE: "FAIR" INDICATES FEW OR NO CLOUDS BELOW 12,000 FEET WITH NO
SIGNIFICANT WEATHER AND/OR OBSTRUCTIONS TO VISIBILITY.

* - STATION DOES NOT REPORT WEATHER SUCH AS PRECIPITATION OR FOG.

+ - STATION NOT QUALITY CONTROLLED BY THE NATIONAL WEATHER SERVICE.
    USE DATA WITH CAUTION...ESPECIALLY DEWPOINT AND RELATIVE
    HUMIDITY OBSERVATIONS.

INZ001>003-010>013-019-020-292000-
NORTHWEST INDIANA

CITY           SKY/WX    TMP DP  RH WIND       PRES   REMARKS
GARY /AIRPORT/ MOSUNNY   88  70  55 SE8       30.23F
KNOX *+        SUNNY     86  45  23 S3        30.24S
MONTICELLO +   SUNNY     85  69  56 SE5       30.22F

$$

LMZ046-743>745-292000-
SOUTHERN LAKE MICHIGAN

STATION/POSITION TIME  TEMP    WIND        PRES    WAVE
                       AIR SEA DIR/SP/G            HT
                 (UTC) (F)     (DEG/KT/KT) (MB)    (FT)
BURNS HARBOR     1800   81      CALM  /  4 1024.0F
MICHIGAN CITY    1800   81     340/  8/  8   N/A
5NW MICH CITY    1800   80 77   40/  2/  4   N/A     1

$$

INZ004-005-014>016-021>024-292000-
NORTH CENTRAL INDIANA

CITY           SKY/WX    TMP DP  RH WIND       PRES   REMARKS
ELKHART        MOSUNNY  N/A N/A N/A SE5       30.24F
GOSHEN         MOSUNNY   86  70  58 VRB3      30.25F
PERU/GRISSOM   PTSUNNY   86  72  62 NE6       30.23F
SOUTH BEND     PTSUNNY   83  70  64 CALM      30.25F

$$

INZ006>009-017-018-025>027-292000-
NORTHEAST INDIANA

CITY           SKY/WX    TMP DP  RH WIND       PRES   REMARKS
ANGOLA *+      MOSUNNY   82  72  69 CALM      30.26F
FORT WAYNE     MOSUNNY   85  70  60 VRB3      30.26F

$$

INZ028-029-035-036-043>045-051>053-292000-
WEST CENTRAL INDIANA

CITY           SKY/WX    TMP DP  RH WIND       PRES   REMARKS
CRAWFORDSVL +  SUNNY     84  72  67 SE3       30.22F
LAFAYETTE      SUNNY     87  72  60 CALM      30.21F
TERRE HAUTE    SUNNY     89  67  47 CALM      30.21F

$$

INZ030>032-037>040-046>048-054>057-064-065-292000-
CENTRAL INDIANA

CITY           SKY/WX    TMP DP  RH WIND       PRES   REMARKS
COLUMBUS       SUNNY     86  73  66 S3        30.22F
INDIANAPOLIS   MOSUNNY   88  67  49 E5        30.21F
-EAGLE CREEK   SUNNY     88  65  46 VRB5      30.21F
KOKOMO *+      SUNNY     86  72  62 SE8       30.23F
MT COMFORT *+  MOSUNNY   88  72  58 NE6       30.23F
SHELBYVILLE    SUNNY     89  70  53 VRB5      30.21F

$$

INZ033-034-041-042-049-050-058-059-292000-
EAST CENTRAL INDIANA

CITY           SKY/WX    TMP DP  RH WIND       PRES   REMARKS
MUNCIE         MOSUNNY   87  73  62 E9        30.24F

$$

INZ060-061-067>069-081>083-085>088-292000-
SOUTHWEST INDIANA

CITY           SKY/WX    TMP DP  RH WIND       PRES   REMARKS
EVANSVILLE     SUNNY     91  69  48 VRB5      30.17F HX  96
HUNTINGBURG *+ SUNNY     90  70  51 N8        30.18F HX  95

$$

INZ062-063-066-070>080-084-089>092-292000-
SOUTH CENTRAL AND SOUTHEAST INDIANA

CITY           SKY/WX    TMP DP  RH WIND       PRES   REMARKS
BLOOMINGTON    SUNNY     89  68  49 E6        30.21F
MADISON *+     SUNNY     90  70  51 CALM      30.22F HX  95

$$





USA.gov is the U.S. government's official web portal to all federal, state and local government web resources and services.